1499515201.07,37248,17.81,73998.8,6.15,4.63,4.59,0,*7C
1499515202.24,37249,17.88,73992.5,6.15,5.45,5.49,0,*78
1499515203.47,37250,17.81,73986.3,6.15,6.39,6.39,0,*7C
1499515204.71,37251,17.88,73996.3,6.15,6.39,6.47,0,*74
1499515205.96,37252,17.88,74000.5,6.17,6.61,6.61,0,*7C
1499515207.2,37253,17.88,73982.5,6.17,6.21,6.17,0,*78
1499515208.45,37254,17.88,73986.3,6.17,5.85,5.85,0,*7A
1499515209.68,37255,17.88,73994.3,6.19,5.85,5.85,0,*75
1499515210.87,37256,17.88,74014.8,6.19,5.67,5.63,0,*72
1499515212.1,37257,17.81,74016.0,6.19,5.55,5.55,0,*77
1499515213.32,37258,17.88,74016.0,6.19,5.77,5.77,0,*78
1499515214.55,37259,17.81,74006.3,6.19,5.55,5.51,0,*7D
1499515215.73,37260,17.88,73992.3,6.19,5.49,5.41,0,*7B
1499515216.98,37261,17.88,73980.3,6.17,5.51,5.51,0,*7C
1499515218.21,37262,17.81,73952.5,6.19,5.51,5.51,0,*71
1499515219.44,37263,17.88,73958.3,6.21,5.51,5.51,0,*7B
1499515220.63,37264,17.88,73934.5,6.19,5.99,5.99,0,*77
1499515221.82,37265,17.88,73962.0,6.19,6.11,6.11,0,*76
1499515223.05,37266,17.88,73966.5,6.21,6.47,6.47,0,*7E
1499515224.28,37267,17.81,73972.5,6.21,5.55,5.51,0,*7B
1499515225.48,37268,17.81,73962.8,6.21,5.55,5.63,0,*75
1499515226.71,37269,17.88,73980.3,6.25,6.51,6.57,0,*73
1499515227.92,37270,17.88,73980.8,6.23,6.79,6.83,0,*7E
1499515229.19,37271,17.81,74000.8,6.23,6.35,6.35,0,*7A
1499515230.4,37272,17.81,73980.5,6.23,5.59,5.59,0,*79
1499515231.58,37273,17.88,73998.0,6.25,5.29,5.23,0,*74
1499515232.8,37274,17.88,73990.0,6.23,5.19,5.07,0,*70
1499515234.07,37275,17.88,73994.3,6.23,5.01,4.97,0,*70
1499515235.31,37276,17.88,73984.8,6.21,5.05,4.97,0,*75
1499515236.54,37277,17.88,73996.0,6.21,5.05,5.05,0,*7E
1499515237.74,37278,17.81,73994.0,6.21,5.07,5.05,0,*73
1499515238.92,37279,17.88,73958.3,6.21,5.07,5.15,0,*73
1499515240.16,37280,17.81,73984.5,6.21,4.93,4.93,0,*76
1499515241.37,37281,17.88,73984.8,6.21,4.97,4.85,0,*74
1499515242.55,37282,17.81,73978.5,6.21,4.45,4.33,0,*75
1499515243.74,37283,17.88,73972.3,6.19,4.33,4.33,0,*7E
1499515244.94,37284,17.88,73982.5,6.17,4.81,4.81,0,*77
1499515246.15,37285,17.88,73978.8,6.17,4.53,4.53,0,*76
1499515247.34,37286,17.81,73974.0,6.19,4.57,4.57,0,*7B
1499515248.57,37287,17.81,73970.8,6.17,4.89,4.79,0,*7B
1499515249.78,37288,17.88,73976.5,6.15,5.07,5.01,0,*7F
1499515250.97,37289,17.81,73986.0,6.15,5.07,5.07,0,*78
1499515252.15,37290,17.88,73968.8,6.15,5.33,5.29,0,*7B
1499515253.34,37291,17.88,73978.5,6.15,5.11,5.07,0,*76
1499515254.57,37292,17.81,73974.5,6.15,5.01,4.97,0,*7C
1499515255.81,37293,17.81,73970.3,6.15,4.79,4.63,0,*78
1499515257.02,37294,17.88,73972.8,6.09,4.45,4.33,0,*78
1499515258.25,37295,17.81,73984.5,6.13,4.59,4.53,0,*79
1499515259.51,37296,17.81,73982.8,6.13,4.59,4.63,0,*79
1499515260.77,37297,17.88,73990.5,6.13,4.75,4.67,0,*72
1499515262.01,37298,17.88,74002.5,6.09,4.81,4.71,0,*7A
1499515263.24,37299,17.88,73998.3,6.13,4.97,4.85,0,*7C
1499515264.45,37300,17.88,73980.0,6.13,5.23,5.19,0,*77
1499515265.72,37301,17.81,74004.5,6.09,4.75,4.75,0,*74
1499515266.96,37302,17.81,74014.5,6.09,5.15,5.05,0,*76
1499515268.16,37303,17.88,74018.3,6.09,5.41,5.41,0,*76
1499515269.38,37304,17.81,74028.3,6.13,5.19,5.07,0,*75
1499515270.58,37305,17.88,74034.8,6.09,5.37,5.37,0,*70
1499515271.85,37306,17.88,74002.8,6.09,4.75,4.71,0,*77
1499515273.09,37307,17.88,74000.8,6.09,4.59,4.57,0,*7C
1499515274.36,37308,17.81,73984.3,6.09,5.05,5.05,0,*7D
1499515275.57,37309,17.88,73978.0,6.09,4.49,4.33,0,*71
1499515276.78,37310,17.88,73976.3,6.09,4.11,4.11,0,*74
1499515278.0,37311,17.81,73986.5,6.09,5.27,5.37,0,*74
1499515279.18,37312,17.81,73970.5,6.07,5.45,5.45,0,*78
1499515280.39,37313,17.81,73990.0,6.07,5.99,6.13,0,*78
1499515281.6,37314,17.88,73992.5,6.09,5.99,6.07,0,*74
1499515282.81,37315,17.88,74010.0,6.13,6.25,6.29,0,*76
1499515284.06,37316,17.81,73998.0,6.13,6.57,6.69,0,*74
1499515285.31,37317,17.88,73996.0,6.17,6.61,6.61,0,*7C
1499515286.54,37318,17.81,74006.0,6.17,6.83,6.87,0,*77
1499515287.77,37319,17.81,74016.0,6.21,6.87,6.87,0,*77
1499515289.0,37320,17.81,74020.8,6.21,6.53,6.47,0,*78
1499515290.22,37321,17.88,74020.0,6.23,6.25,6.25,0,*7E
1499515291.43,37322,17.88,74038.0,6.23,5.71,5.71,0,*7D
1499515292.66,37323,17.88,74036.8,6.23,5.67,5.55,0,*7D
1499515293.92,37324,17.88,74042.3,6.23,5.51,5.55,0,*7F
1499515295.13,37325,17.81,74038.8,6.23,5.59,5.59,0,*7A
1499515296.38,37326,17.88,74042.3,6.23,5.55,5.55,0,*79
1499515297.58,37327,17.81,74028.5,6.25,5.67,5.67,0,*7E
1499515298.8,37328,17.88,74024.0,6.25,5.55,5.55,0,*71
1499515300.02,37329,17.88,74014.8,6.23,5.71,5.67,0,*71
1499515301.2,37330,17.81,74006.0,6.25,5.59,5.59,0,*78
1499515302.41,37331,17.81,74002.3,6.23,5.29,5.29,0,*7F
1499515303.61,37332,17.88,73996.5,6.23,5.41,5.41,0,*7C
1499515304.81,37333,17.88,73986.0,6.23,5.45,5.41,0,*79
1499515306.01,37334,17.81,73994.5,6.25,6.03,6.03,0,*7C
1499515307.22,37335,17.88,73988.8,6.25,6.11,6.13,0,*7F
1499515308.45,37336,17.88,73974.8,6.25,5.89,5.89,0,*7E
1499515309.71,37337,17.81,74002.3,6.27,5.73,5.73,0,*7D
1499515310.96,37338,17.88,74010.8,6.27,5.81,5.73,0,*7F
1499515312.19,37339,17.88,74028.0,6.29,5.85,5.81,0,*79
1499515313.42,37340,17.88,74018.5,6.27,5.45,5.55,0,*7C
1499515314.65,37341,17.88,74010.5,6.27,3.71,3.59,0,*76
1499515315.85,37342,17.88,74004.0,6.25,3.93,3.93,0,*7D
1499515317.06,37343,17.88,74000.5,6.25,4.97,4.85,0,*7F
1499515318.28,37344,17.81,74010.0,6.25,5.11,5.01,0,*7A
1499515319.52,37345,17.88,74012.5,6.23,5.11,5.01,0,*7D
1499515320.76,37346,17.81,74006.0,6.23,5.07,5.01,0,*79
1499515321.99,37347,17.81,74004.3,6.25,4.63,4.59,0,*71
1499515323.25,37348,17.88,73972.8,6.23,4.63,4.63,0,*71
1499515324.53,37349,17.88,74006.3,6.23,4.71,4.71,0,*70
1499515325.79,37350,17.81,74000.8,6.23,4.63,4.63,0,*78
1499515326.99,37351,17.81,73988.3,6.23,5.45,5.45,0,*79
1499515328.19,37352,17.81,73968.0,6.21,6.17,6.21,0,*7D
1499515329.45,37353,17.81,73966.8,6.23,6.61,6.69,0,*73
1499515330.66,37354,17.81,73942.5,6.25,6.73,6.79,0,*70
1499515331.92,37355,17.88,74004.8,6.27,6.43,6.51,0,*7A
1499515333.1,37356,17.81,74014.8,6.29,6.03,6.07,0,*70
1499515334.29,37357,17.81,73972.8,6.29,5.63,5.71,0,*76
1499515335.51,37358,17.88,73974.0,6.29,6.53,6.61,0,*7B
1499515336.74,37359,17.81,73982.3,6.31,7.05,7.11,0,*77
1499515337.99,37360,17.81,73988.5,6.31,6.69,6.65,0,*74
1499515339.22,37361,17.88,74002.5,6.35,6.83,6.91,0,*7E
1499515340.42,37362,17.81,74004.5,6.37,7.47,7.59,0,*73
1499515341.65,37363,17.88,73962.3,6.41,7.11,7.15,0,*78
1499515342.88,37364,17.88,73990.0,6.39,6.83,6.87,0,*70
1499515344.06,37365,17.81,73998.5,6.41,6.07,5.99,0,*7E
1499515345.24,37366,17.88,74032.0,6.41,5.71,5.63,0,*7A
1499515346.42,37367,17.88,74016.8,6.41,4.33,4.23,0,*79
1499515347.59,37368,17.88,74012.8,6.37,4.15,4.15,0,*76
1499515348.76,37369,17.81,74010.0,6.37,5.29,5.33,0,*7C
1499515349.94,37370,17.88,74018.3,6.37,5.71,5.67,0,*78
1499515351.15,37371,17.88,74022.8,6.39,5.67,5.67,0,*70
1499515352.38,37372,17.81,74036.8,6.37,5.81,5.77,0,*74
1499515353.55,37373,17.88,74042.3,6.41,6.11,6.07,0,*7A
1499515354.76,37374,17.88,74022.5,6.41,5.73,5.71,0,*78
1499515355.95,37375,17.81,74022.5,6.39,5.45,5.45,0,*74
1499515357.15,37376,17.88,74020.5,6.39,5.45,5.49,0,*7B
1499515358.35,37377,17.81,74012.5,6.39,5.33,5.37,0,*72
1499515359.61,37378,17.88,74002.3,6.39,5.93,5.93,0,*79
1499515360.88,37379,17.88,73956.5,6.39,6.43,6.51,0,*7B
1499515362.1,37380,17.81,73928.8,6.41,6.17,6.17,0,*71
1499515363.29,37381,17.81,73990.3,6.41,6.33,6.33,0,*70
1499515364.47,37382,17.88,73982.3,6.41,5.63,5.63,0,*73
1499515365.7,37383,17.81,73960.5,6.43,4.93,4.89,0,*7B
1499515366.91,37384,17.88,73960.3,6.41,5.89,5.95,0,*78
1499515368.14,37385,17.88,73968.0,6.43,6.75,6.87,0,*7B
1499515369.36,37386,17.81,73940.0,6.45,5.93,5.89,0,*78
1499515370.57,37387,17.81,73946.3,6.43,5.95,5.95,0,*74
1499515371.81,37388,17.81,73966.3,6.43,6.53,6.57,0,*7F
1499515373.06,37389,17.88,73978.3,6.47,6.69,6.69,0,*7E
1499515374.31,37390,17.88,74016.8,6.47,6.43,6.43,0,*76
1499515375.57,37391,17.88,74020.8,6.51,6.65,6.65,0,*70
1499515376.75,37392,17.88,74008.5,6.49,5.71,5.67,0,*7D
1499515378.01,37393,17.88,74018.0,6.47,5.93,5.89,0,*7E
1499515379.24,37394,17.88,74012.8,6.49,5.81,5.81,0,*7C
1499515380.46,37395,17.81,73998.3,6.49,5.85,5.81,0,*79
1499515381.69,37396,17.81,74016.8,6.49,5.81,5.81,0,*7E
1499515382.92,37397,17.81,74000.3,6.49,5.93,5.93,0,*7F
1499515384.15,37398,17.88,73996.0,6.51,6.07,6.17,0,*78
1499515385.4,37399,17.88,73972.5,6.51,5.27,5.27,0,*78
1499515386.57,37400,17.88,73966.5,6.49,5.37,5.37,0,*76
1499515387.77,37401,17.88,73958.3,6.49,6.13,6.29,0,*7E
1499515389.0,37402,17.88,73950.0,6.49,6.53,6.53,0,*74
1499515390.26,37403,17.88,73964.0,6.51,6.51,6.39,0,*72
1499515391.51,37404,17.81,73970.0,6.51,6.87,6.87,0,*7B
1499515392.77,37405,17.81,73992.3,6.53,7.19,7.27,0,*75
1499515394.02,37406,17.88,73986.8,6.57,7.15,7.23,0,*7A
1499515395.25,37407,17.81,73974.0,6.57,6.57,6.79,0,*72
1499515396.48,37408,17.88,73974.8,6.59,7.19,7.19,0,*7F
1499515397.69,37409,17.88,73992.8,6.59,7.55,7.61,0,*79
1499515398.9,37410,17.88,74012.0,6.61,6.93,6.93,0,*7D
1499515400.13,37411,17.88,74000.8,6.63,5.85,5.85,0,*7E
1499515401.35,37412,17.81,73980.0,6.63,5.27,5.27,0,*7D
1499515402.58,37413,17.81,73956.5,6.63,6.39,6.51,0,*72
1499515403.76,37414,17.88,73996.5,6.63,6.75,6.75,0,*7B
1499515404.98,37415,17.88,73986.0,6.63,5.73,5.73,0,*7A
1499515406.18,37416,17.88,74012.3,6.63,5.85,5.95,0,*78
1499515407.43,37417,17.88,73980.3,6.65,6.65,6.69,0,*72
1499515408.68,37418,17.81,73950.5,6.65,6.53,6.65,0,*74
1499515409.88,37419,17.81,73922.8,6.65,7.29,7.33,0,*7B
1499515411.11,37420,17.81,74010.8,6.65,7.09,7.19,0,*7B
1499515412.34,37421,17.88,74010.8,6.69,6.13,6.07,0,*72
1499515413.55,37422,17.88,74012.8,6.69,5.99,5.99,0,*74
1499515414.8,37423,17.88,74020.5,6.69,6.57,6.35,0,*71
1499515416.01,37424,17.81,73994.5,6.69,5.19,5.07,0,*7D
1499515417.24,37425,17.81,73992.0,6.69,6.83,6.87,0,*77
1499515418.41,37426,17.88,74004.3,6.71,8.05,8.19,0,*74
1499515419.62,37427,17.88,74002.5,6.73,8.79,8.87,0,*7B
1499515420.82,37428,17.81,73980.5,6.79,8.61,8.71,0,*7E
1499515422.03,37429,17.88,73986.5,6.81,8.65,8.71,0,*7C
1499515423.23,37430,17.88,73976.0,6.85,8.75,8.79,0,*79
1499515424.43,37431,17.88,73972.5,6.87,8.65,8.79,0,*7B
1499515425.66,37432,17.88,73950.0,6.89,8.89,9.01,0,*7A
1499515426.84,37433,17.88,73988.3,6.93,8.05,7.97,0,*75
1499515428.03,37434,17.81,73986.0,6.93,7.87,7.97,0,*77
1499515429.24,37435,17.81,74004.8,6.95,7.55,7.55,0,*71
1499515430.49,37436,17.88,73988.5,6.95,6.17,6.17,0,*72
1499515431.71,37437,17.81,73990.5,6.95,7.09,7.11,0,*7A
1499515432.92,37438,17.81,73986.3,6.95,7.29,7.29,0,*7C
1499515434.12,37439,17.88,74000.0,6.95,7.41,7.41,0,*7D
1499515435.33,37440,17.88,74006.0,6.99,6.11,5.95,0,*70
1499515436.53,37441,17.88,74008.5,6.97,5.01,4.89,0,*71
1499515437.73,37442,17.88,73990.3,6.97,5.05,4.89,0,*76
1499515438.89,37443,17.81,73994.0,6.93,5.29,5.41,0,*78
1499515440.08,37444,17.88,74006.5,6.95,7.01,7.01,0,*77
1499515441.31,37445,17.88,73992.0,6.95,7.23,7.29,0,*7C
1499515442.56,37446,17.88,73978.3,6.95,7.19,7.19,0,*75
1499515443.76,37447,17.88,73990.3,6.95,7.09,7.09,0,*74
1499515444.99,37448,17.88,73982.5,6.95,6.73,6.75,0,*7D
1499515446.19,37449,17.81,73970.0,6.95,6.93,6.93,0,*7A
1499515447.4,37450,17.88,73950.8,6.93,6.97,6.91,0,*72
1499515448.63,37451,17.88,73952.3,6.97,6.43,6.39,0,*7C
1499515449.88,37452,17.88,73998.8,6.95,5.93,5.93,0,*70
1499515451.14,37453,17.81,73982.3,6.95,6.43,6.43,0,*71
1499515452.33,37454,17.88,73994.0,6.95,6.75,6.75,0,*76
1499515453.57,37455,17.88,74012.5,6.99,7.59,7.69,0,*78
1499515454.74,37456,17.88,73996.8,6.97,7.29,7.41,0,*78
1499515455.91,37457,17.88,73990.0,6.97,6.93,7.01,0,*7D
1499515457.14,37458,17.81,73994.8,6.99,6.17,6.07,0,*77
1499515458.34,37459,17.81,73996.0,6.97,5.49,5.27,0,*71
1499515459.5,37460,17.88,74004.3,6.97,5.45,5.33,0,*72
1499515460.73,37461,17.81,74018.0,6.95,5.15,4.93,0,*7F
1499515461.94,37462,17.81,74008.8,6.93,4.85,4.75,0,*7A
1499515463.14,37463,17.88,74000.0,6.93,5.71,5.55,0,*72
1499515464.33,37464,17.88,74004.3,6.93,5.55,5.45,0,*72
1499515465.52,37465,17.88,73998.8,6.93,5.23,5.19,0,*7B
1499515466.69,37466,17.81,73986.3,6.89,4.27,4.11,0,*7F
1499515467.95,37467,17.88,73984.5,6.87,4.79,4.71,0,*7D
1499515469.18,37468,17.88,74004.3,6.87,4.81,4.67,0,*72
1499515470.39,37469,17.81,74006.8,6.85,4.81,4.67,0,*71
1499515471.59,37470,17.88,74014.0,6.85,4.89,4.79,0,*7E
1499515472.82,37471,17.88,74014.3,6.85,5.05,5.05,0,*70
1499515474.0,37472,17.88,74008.0,6.83,5.49,5.33,0,*78
1499515475.2,37473,17.88,73992.8,6.81,4.89,4.89,0,*76
1499515476.39,37474,17.81,73986.3,6.81,5.49,5.45,0,*7D
1499515477.59,37475,17.88,73978.5,6.81,5.99,5.99,0,*70
1499515478.82,37476,17.81,73966.3,6.81,4.97,4.85,0,*70
1499515480.05,37477,17.88,73968.8,6.81,4.85,4.63,0,*7A
1499515481.23,37478,17.81,73950.0,6.75,4.57,4.57,0,*76
1499515482.41,37479,17.88,73966.3,6.75,5.63,5.71,0,*74
1499515483.63,37480,17.88,73976.3,6.75,6.61,6.53,0,*70
1499515484.81,37481,17.88,73978.5,6.79,6.93,6.93,0,*7C
1499515486.01,37482,17.88,73954.3,6.79,6.35,6.21,0,*7A
1499515487.18,37483,17.88,73994.8,6.79,6.11,6.07,0,*79
1499515488.38,37484,17.88,73976.0,6.79,4.97,4.85,0,*7A
1499515489.58,37485,17.88,74002.8,6.79,4.81,4.71,0,*77
1499515490.76,37486,17.88,73992.0,6.79,4.57,4.45,0,*78
1499515491.97,37487,17.88,73998.5,6.75,4.59,4.41,0,*7F
1499515493.2,37488,17.88,74002.3,6.71,3.15,2.73,0,*7C
1499515494.43,37489,17.88,74010.0,6.71,3.33,3.11,0,*7C
1499515495.61,37490,17.88,74010.8,6.67,4.23,3.89,0,*74
1499515496.86,37491,17.88,74012.8,6.65,3.53,3.53,0,*70
1499515498.06,37492,17.88,73992.3,6.63,4.49,4.31,0,*7A
1499515499.3,37493,17.88,73996.8,6.63,3.79,3.41,0,*7F
1499515500.47,37494,17.88,73994.5,6.63,4.49,4.45,0,*7F
1499515501.7,37495,17.88,73986.3,6.61,4.89,4.79,0,*7F
1499515502.91,37496,17.88,73986.5,6.61,5.23,5.11,0,*72
1499515504.15,37497,17.88,73996.5,6.61,5.67,5.55,0,*73
1499515505.35,37498,17.88,74000.3,6.61,5.37,5.15,0,*7D
1499515506.59,37499,17.88,74000.0,6.61,5.15,5.01,0,*79
1499515507.81,37500,17.88,73996.0,6.61,5.59,5.55,0,*71
1499515509.05,37501,17.88,73982.8,6.63,5.05,4.79,0,*74
1499515510.25,37502,17.88,74006.5,6.63,4.79,4.57,0,*71
1499515511.51,37503,17.88,74008.5,6.61,4.79,4.63,0,*75
1499515512.71,37504,17.88,74018.0,6.61,4.41,4.15,0,*78
1499515513.9,37505,17.88,74006.0,6.59,4.41,4.37,0,*72
1499515515.11,37506,17.88,74006.0,6.59,5.07,4.97,0,*78
1499515516.32,37507,17.88,73998.5,6.59,5.01,4.85,0,*7C
1499515517.55,37508,17.88,73972.0,6.57,5.51,5.33,0,*74
1499515518.78,37509,17.88,73974.8,6.57,5.99,5.89,0,*70
1499515519.99,37510,17.88,73978.0,6.59,5.15,4.97,0,*7C
1499515521.17,37511,17.81,73948.5,6.59,5.59,5.49,0,*77
1499515522.4,37512,17.88,73960.3,6.61,6.17,6.03,0,*7B
1499515523.61,37513,17.88,73986.8,6.59,6.07,5.89,0,*71
1499515524.87,37514,17.81,73996.8,6.61,6.51,6.35,0,*7A
1499515526.1,37515,17.81,73992.3,6.61,6.39,6.29,0,*78
1499515527.28,37516,17.88,73992.8,6.63,6.29,6.07,0,*74
1499515528.49,37517,17.88,73986.3,6.63,6.53,6.33,0,*7F
1499515529.74,37518,17.88,73974.3,6.65,6.87,6.69,0,*70
1499515530.96,37519,17.88,73972.5,6.65,6.75,6.53,0,*75
1499515532.19,37520,17.88,73968.8,6.65,5.99,5.81,0,*72
1499515533.39,37521,17.81,73930.0,6.69,6.29,6.07,0,*7A
1499515534.61,37522,17.88,73922.3,6.69,6.75,6.61,0,*70
1499515535.86,37523,17.81,73936.8,6.69,6.73,6.57,0,*72
1499515537.09,37524,17.88,73938.5,6.69,6.13,6.03,0,*72
1499515538.33,37525,17.88,73980.0,6.69,6.03,5.77,0,*72
1499515539.54,37526,17.88,73986.3,6.71,5.19,4.79,0,*7F
1499515540.79,37527,17.88,73996.5,6.69,5.01,4.67,0,*71
1499515542.02,37528,17.88,73984.5,6.69,5.23,4.79,0,*71
1499515543.2,37529,17.88,73978.0,6.67,5.23,4.81,0,*79
1499515544.41,37530,17.88,73978.0,6.67,5.33,4.97,0,*77
1499515545.64,37531,17.88,73978.3,6.69,5.11,4.67,0,*77
1499515546.88,37532,17.88,73988.3,6.67,4.71,4.05,0,*79
1499515548.09,37533,17.88,73936.5,6.67,5.05,4.53,0,*79
1499515549.32,37534,17.88,73984.5,6.65,5.59,5.05,0,*77
1499515550.5,37535,17.88,73998.5,6.67,4.85,4.33,0,*70
1499515551.72,37536,17.88,74000.8,6.67,4.53,3.41,0,*7A
1499515552.92,37537,17.88,74034.3,6.63,3.67,2.35,0,*7D
1499515554.14,37538,17.88,74006.8,6.63,3.15,1.83,0,*79
1499515555.36,37539,17.88,74004.5,6.61,3.97,2.99,0,*78
1499515556.55,37540,17.81,73984.8,6.59,5.33,4.53,0,*75
1499515557.72,37541,17.88,74000.0,6.59,5.45,4.45,0,*72
1499515558.91,37542,17.88,74000.3,6.59,6.25,5.15,0,*70
1499515560.1,37543,17.88,74010.0,6.59,4.53,3.25,0,*77
1499515561.36,37544,17.81,73992.3,6.61,4.31,3.15,0,*7C
1499515562.55,37545,17.88,73966.5,6.59,5.33,4.37,0,*72
1499515563.74,37546,17.88,73986.8,6.59,6.03,5.07,0,*73
1499515565.01,37547,17.88,73992.8,6.61,5.81,4.75,0,*74
1499515566.23,37548,17.88,73978.3,6.61,5.07,4.05,0,*72
1499515567.44,37549,17.88,73964.5,6.61,5.95,4.89,0,*7C
1499515568.7,37550,17.88,73984.8,6.61,5.93,4.97,0,*7D
1499515569.96,37551,17.88,74020.5,6.61,6.57,5.55,0,*78
1499515571.15,37552,17.88,74014.8,6.63,6.33,5.29,0,*70
1499515572.33,37553,17.88,74006.5,6.63,5.59,4.33,0,*74
1499515573.53,37554,17.88,73992.5,6.65,5.41,4.33,0,*7C
1499515574.72,37555,17.88,73996.3,6.63,6.33,5.15,0,*78
1499515575.95,37556,17.88,73980.3,6.65,6.69,5.63,0,*73
1499515577.17,37557,17.88,73986.3,6.67,6.65,5.19,0,*71
1499515578.4,37558,17.88,73974.0,6.69,5.89,3.59,0,*73
1499515579.59,37559,17.88,73968.0,6.69,5.49,2.99,0,*73
1499515580.81,37560,17.88,73966.8,6.69,5.37,2.55,0,*70
1499515582.04,37561,17.88,73940.0,6.69,6.07,3.33,0,*70
1499515583.28,37562,17.88,73946.8,6.69,6.03,3.11,0,*77
1499515584.52,37563,17.88,73946.5,6.69,5.77,2.77,0,*77
1499515585.74,37564,17.88,73970.0,6.71,6.25,3.33,0,*7C
1499515586.97,37565,17.88,73980.3,6.71,6.57,3.45,0,*79
1499515588.22,37566,17.88,73986.8,6.73,6.17,3.23,0,*7C
1499515589.44,37567,17.88,73978.0,6.73,5.41,2.21,0,*7E
1499515590.64,37568,17.88,73982.0,6.73,5.63,2.35,0,*74
1499515591.84,37569,17.88,73994.0,6.71,5.71,2.39,0,*78
1499515593.07,37570,17.88,73974.5,6.71,4.97,1.29,0,*7B
1499515594.3,37571,17.88,73998.5,6.71,4.63,1.17,0,*7C
1499515595.47,37572,17.88,73962.3,6.71,5.11,1.41,0,*78
1499515596.72,37573,17.88,73992.5,6.73,4.71,0.63,0,*4D
1499515597.91,37574,17.88,73972.3,6.71,4.49,0.37,0,*42
1499515599.14,37575,17.88,73992.5,6.71,4.75,0.55,0,*48
1499515600.34,37576,17.88,74000.8,6.71,4.31,0.01,0,*7A
1499515601.56,37577,17.88,74002.8,6.69,4.53,0.25,0,*40
1499515602.81,37578,17.88,73992.5,6.69,4.75,0.55,0,*4C
1499515604.01,37579,17.88,73996.3,6.69,4.41,-0.29,0,*6C
1499515605.23,37580,17.88,73994.0,6.65,4.45,-0.27,0,*6C
1499515606.43,37581,17.88,73974.3,6.67,5.23,0.71,0,*40
1499515607.62,37582,17.88,73976.5,6.67,5.45,0.95,0,*49
1499515608.84,37583,17.81,73980.3,6.69,5.33,0.55,0,*4B
1499515610.07,37584,17.88,73982.5,6.67,5.05,0.41,0,*42
1499515611.3,37585,17.88,73974.5,6.69,5.71,1.09,0,*73
1499515612.55,37586,17.88,73990.3,6.69,5.89,1.29,0,*75
1499515613.77,37587,17.88,74022.0,6.69,5.67,0.83,0,*45
1499515614.99,37588,17.88,74014.8,6.67,3.71,-1.55,0,*52
1499515616.21,37589,17.88,74022.5,6.69,4.31,-0.65,0,*6C
1499515617.42,37590,17.88,74026.0,6.67,4.63,-0.33,0,*6E
1499515618.66,37591,17.88,74010.8,6.67,4.75,-0.23,0,*69
1499515619.83,37592,17.88,73990.3,6.67,4.85,-0.07,0,*53
1499515621.06,37593,17.88,73976.5,6.67,5.51,0.71,0,*46
1499515622.25,37594,17.88,73972.8,6.67,5.77,1.01,0,*73
1499515623.45,37595,17.88,73966.5,6.69,5.33,0.43,0,*4B
1499515624.68,37596,17.88,73962.8,6.69,4.79,-0.11,0,*6D
1499515625.9,37597,17.88,73962.0,6.69,5.07,0.21,0,*4A
1499515627.13,37598,17.88,73986.3,6.69,5.33,0.37,0,*45
1499515628.34,37599,17.88,73982.0,6.69,5.23,0.13,0,*43
1499515629.57,37600,17.88,73990.0,6.69,2.89,-3.31,0,*59
1499515630.78,37601,17.88,73970.0,6.67,2.85,-3.31,0,*5A
1499515631.99,37602,17.88,73974.5,6.67,3.19,-2.95,0,*52
1499515633.25,37603,17.88,73952.3,6.65,3.97,-1.87,0,*57
1499515634.46,37604,17.88,73956.5,6.63,4.59,-1.21,0,*5F
1499515635.67,37605,17.81,73976.0,6.63,4.45,-1.43,0,*57
1499515636.88,37606,17.88,73982.8,6.63,4.11,-1.83,0,*59
1499515638.14,37607,17.88,73986.5,6.65,3.97,-1.99,0,*5C
1499515639.38,37608,17.88,73976.5,6.63,4.01,-1.83,0,*56
1499515640.59,37609,17.88,73974.3,6.63,3.89,-2.07,0,*5F
1499515641.84,37610,17.88,73966.0,6.61,3.75,-2.15,0,*55
1499515643.08,37611,17.88,73958.5,6.59,3.71,-2.47,0,*5C
1499515644.31,37612,17.88,73968.5,6.61,4.45,-1.35,0,*52
1499515645.55,37613,17.88,73958.3,6.61,4.97,-1.25,0,*5D
1499515646.74,37614,17.88,73962.3,6.59,4.19,-1.71,0,*56
1499515647.97,37615,17.88,73958.5,6.61,4.63,-1.29,0,*5C
1499515649.23,37616,17.88,73958.5,6.61,4.63,-1.35,0,*52
1499515650.45,37617,17.81,73978.5,6.59,4.15,-1.91,0,*57
1499515651.66,37618,17.81,73976.5,6.61,3.85,-2.35,0,*50
1499515652.88,37619,17.88,73974.0,6.61,3.93,-2.23,0,*51
1499515654.09,37620,17.88,73978.8,6.59,3.33,-2.99,0,*5B
1499515655.3,37621,17.88,73976.5,6.59,3.37,-2.99,0,*5E
1499515656.52,37622,17.88,73978.3,6.59,3.81,-2.51,0,*54
1499515657.74,37623,17.88,73988.8,6.57,3.93,-2.31,0,*5E
1499515658.98,37624,17.88,73992.8,6.57,4.63,-1.55,0,*50
1499515660.22,37625,17.88,73996.8,6.57,4.59,-1.63,0,*5D
1499515661.42,37626,17.88,73978.8,6.57,4.49,-1.79,0,*54
1499515662.64,37627,17.88,73980.3,6.57,4.15,-2.19,0,*59
1499515663.87,37628,17.88,73984.5,6.57,4.01,-2.31,0,*59
1499515665.09,37629,17.88,73972.3,6.59,4.05,-2.27,0,*55
1499515666.32,37630,17.88,73970.0,6.57,4.01,-2.39,0,*58
1499515667.55,37631,17.88,73966.3,6.53,3.41,-3.23,0,*54
1499515668.78,37632,17.88,73968.3,6.53,2.69,-4.25,0,*5D
1499515670.02,37633,17.81,73966.3,6.53,2.47,-4.49,0,*5A
1499515671.26,37634,17.88,73966.8,6.51,2.77,-4.25,0,*56
1499515672.46,37635,17.88,73946.3,6.51,2.95,-4.09,0,*55
1499515673.67,37636,17.88,73950.8,6.49,2.77,-4.25,0,*5D
1499515674.9,37637,17.88,73950.0,6.47,2.89,-3.95,0,*5F
1499515676.15,37638,17.81,73972.3,6.47,3.33,-3.55,0,*5C
1499515677.4,37639,17.88,73946.8,6.47,3.41,-3.51,0,*5C
1499515678.61,37640,17.88,73914.3,6.47,3.89,-3.03,0,*51
1499515679.85,37641,17.88,73892.3,6.47,3.67,-3.27,0,*56
1499515681.06,37642,17.88,73914.8,6.47,3.89,-3.03,0,*53
1499515682.25,37643,17.88,73916.3,6.49,4.49,-2.31,0,*57
1499515683.46,37644,17.88,73978.3,6.51,4.45,-2.31,0,*55
1499515684.7,37645,17.88,73982.3,6.51,4.89,-1.83,0,*5E
1499515685.92,37646,17.81,73972.3,6.49,3.49,-3.55,0,*56
1499515687.1,37647,17.88,73968.0,6.49,3.25,-3.95,0,*51
1499515688.32,37648,17.88,73952.3,6.49,2.27,-5.15,0,*53
1499515689.5,37649,17.88,73950.3,6.49,2.91,-4.29,0,*51
1499515690.69,37650,17.88,73962.0,6.49,3.25,-3.91,0,*53
1499515691.9,37651,17.88,73964.5,6.49,3.37,-3.87,0,*56
1499515693.12,37652,17.88,73952.8,6.47,3.19,-4.17,0,*59
1499515694.33,37653,17.88,73956.8,6.49,3.33,-3.91,0,*57
1499515695.56,37654,17.81,73952.8,6.47,3.59,-3.59,0,*56
1499515696.78,37655,17.88,73958.8,6.47,3.55,-3.71,0,*51
1499515697.98,37656,17.88,73968.3,6.47,3.29,-4.05,0,*5D
1499515699.21,37657,17.88,73970.0,6.47,3.19,-4.05,0,*5F
1499515700.45,37658,17.81,73972.0,6.47,3.07,-4.45,0,*5B
1499515701.71,37659,17.88,73946.0,6.47,2.51,-4.85,0,*54
1499515702.92,37660,17.81,73950.8,6.47,2.99,-4.33,0,*57
1499515704.15,37661,17.81,73954.8,6.47,2.77,-4.57,0,*54
1499515705.36,37662,17.88,73954.5,6.47,2.99,-4.41,0,*50
1499515706.56,37663,17.88,73950.5,6.45,3.19,-4.33,0,*5F
1499515707.79,37664,17.88,73974.3,6.45,3.67,-3.71,0,*50
1499515708.99,37665,17.88,73980.0,6.49,3.53,-3.91,0,*54
1499515710.23,37666,17.88,73980.5,6.47,2.59,-5.35,0,*5A
1499515711.44,37667,17.88,73956.8,6.45,1.85,-6.39,0,*54
1499515712.64,37668,17.88,73938.8,6.45,2.01,-6.13,0,*5C
1499515713.85,37669,17.88,73928.3,6.45,2.61,-5.27,0,*5F
1499515715.04,37670,17.81,73960.5,6.45,3.29,-4.61,0,*59
1499515716.28,37671,17.88,73980.0,6.43,3.67,-4.25,0,*54
1499515717.49,37672,17.81,73982.5,6.45,3.79,-3.95,0,*52
1499515718.71,37673,17.81,73984.0,6.47,4.23,-3.71,0,*53
1499515719.92,37674,17.88,73986.3,6.45,3.41,-4.57,0,*56
1499515721.13,37675,17.81,73984.5,6.47,3.59,-4.41,0,*5B
1499515722.37,37676,17.88,73982.0,6.47,3.67,-4.33,0,*50
1499515723.6,37677,17.88,73988.3,6.45,3.11,-4.93,0,*58
1499515724.84,37678,17.81,73978.3,6.45,2.39,-5.85,0,*5A
1499515726.05,37679,17.81,73982.0,6.45,2.47,-5.51,0,*5B
1499515727.25,37680,17.81,73988.0,6.45,3.49,-4.41,0,*52
1499515728.51,37681,17.88,73986.8,6.47,3.19,-4.81,0,*58
1499515729.74,37682,17.88,73988.3,6.47,2.99,-5.11,0,*5A